Poplar Bluff, MO

7:24 PM CDT on April 19, 2018 (GMT -0500)
Poplar Bluff Municipal

Weather History for KPOF - January, 2014

Change the Weather History Date:

Thursday, January 9, 2014

  Actual Average Record
Temperature  
Mean Temperature 33 °F -  
Max Temperature 34 °F 37 °F 75 °F (1957)
Min Temperature 32 °F 20 °F -2 °F (1970)
Degree Days  
Heating Degree Days 32    
Moisture  
Dew Point 28 °F    
Average Humidity 83    
Maximum Humidity 89    
Minimum Humidity 75    
Precipitation  
Precipitation 0.08 in - - ()
Sea Level Pressure  
Sea Level Pressure 30.31 in    
Wind  
Wind Speed 4 mph (SE)    
Max Wind Speed 9 mph    
Max Gust Speed -    
Visibility 5 miles    
Events Rain    
Averages and records for this station are not official NWS values.
T = Trace of Precipitation, MM = Missing Value Source: NWS Daily Summary

Daily Weather History Graph

Daily Weather History Graph

Search for Another Location

Airport or City:

Astronomy

Jan. 09, 2014 Rise Set
Actual Time 7:14 AM CST 5:02 PM CST
Civil Twilight 6:45 AM CST 5:31 PM CST
Nautical Twilight 6:13 AM CST 6:03 PM CST
Astronomical Twilight 5:42 AM CST 6:34 PM CST
Moon 12:26 PM CST (1/9) 1:25 AM CST (1/9)
Length of Visible Light 10h 45m
Length of Day
9h 48m
Waxing Gibbous, 66% of the Moon is Illuminated
Jan 9
Waxing Gibbous
Jan 15
Full
Jan 23
Last Quarter
Jan 30
New
Feb 6
First Quarter

Hourly Weather History & Observations

Time (CST) Temp. Windchill Dew Point Humidity Pressure Visibility Wind Dir Wind Speed Gust Speed Precip Events Conditions
12:53 AM 32.0 °F 27.5 °F 26.1 °F 79% 30.42 in 10.0 mi NE 4.6 mph - 0.00 in   Overcast
1:53 AM 32.0 °F 28.7 °F 26.1 °F 79% 30.43 in 8.0 mi NNE 3.5 mph - 0.01 in   Overcast
2:43 AM 32.0 °F - 26.1 °F 79% 30.41 in 8.0 mi Calm Calm - 0.01 in Rain Light Freezing Rain
2:53 AM 32.0 °F - 26.1 °F 79% 30.43 in 7.0 mi Calm Calm - 0.01 in Rain Light Freezing Rain
3:33 AM 32.0 °F - 27.0 °F 82% 30.41 in 7.0 mi Calm Calm - 0.01 in   Overcast
3:53 AM 32.0 °F 28.7 °F 27.0 °F 82% 30.42 in 6.0 mi ENE 3.5 mph - 0.01 in   Haze
4:53 AM 32.0 °F 26.4 °F 27.0 °F 82% 30.40 in 8.0 mi East 5.8 mph - 0.00 in   Overcast
5:48 AM 33.8 °F 28.6 °F 26.6 °F 75% 30.37 in 10.0 mi SE 5.8 mph - N/A   Overcast
5:53 AM 33.1 °F 28.7 °F 27.0 °F 78% 30.39 in 10.0 mi SE 4.6 mph - N/A   Overcast
6:53 AM 33.1 °F 26.1 °F 26.1 °F 75% 30.38 in 10.0 mi SE 8.1 mph - N/A   Overcast
7:53 AM 33.1 °F 27.7 °F 27.0 °F 78% 30.38 in 10.0 mi SSE 5.8 mph - 0.00 in Rain Light Rain
8:53 AM 33.1 °F 26.1 °F 27.0 °F 78% 30.39 in 4.0 mi SSE 8.1 mph - 0.00 in   Haze
9:05 AM 33.1 °F 25.5 °F 27.0 °F 78% 30.37 in 2.5 mi SSE 9.2 mph - N/A   Haze
9:09 AM 32.0 °F 25.6 °F 27.0 °F 82% 30.38 in 3.0 mi South 6.9 mph - 0.00 in Rain Light Freezing Rain
9:26 AM 32.0 °F 24.2 °F 28.0 °F 85% 30.37 in 2.5 mi SSE 9.2 mph - 0.00 in   Overcast
9:35 AM 32.0 °F 25.6 °F 28.0 °F 85% 30.37 in 3.0 mi SSE 6.9 mph - 0.00 in Rain Light Freezing Rain
9:51 AM 32.0 °F 26.4 °F 28.4 °F 87% 30.37 in 5.0 mi SE 5.8 mph - 0.01 in Rain Light Freezing Rain
9:53 AM 32.0 °F 26.4 °F 28.0 °F 85% 30.39 in 5.0 mi SE 5.8 mph - 0.01 in Rain Light Freezing Rain
10:27 AM 33.1 °F 25.5 °F 28.0 °F 82% 30.34 in 7.0 mi SE 9.2 mph - 0.00 in Rain Light Freezing Rain
10:41 AM 33.1 °F 26.9 °F 28.0 °F 82% 30.35 in 7.0 mi SSE 6.9 mph - 0.01 in Rain Light Freezing Rain
10:53 AM 33.1 °F 26.9 °F 28.0 °F 82% 30.37 in 8.0 mi SSE 6.9 mph - 0.01 in Rain Light Freezing Rain
11:10 AM 33.1 °F 27.7 °F 28.0 °F 82% 30.34 in 10.0 mi SSE 5.8 mph - 0.01 in   Overcast
11:53 AM 33.1 °F 30.0 °F 28.0 °F 82% 30.32 in 5.0 mi South 3.5 mph - 0.01 in   Haze
12:40 PM 33.1 °F 30.0 °F 28.9 °F 85% 30.28 in 6.0 mi South 3.5 mph - 0.00 in Rain Light Rain
12:53 PM 33.1 °F 30.0 °F 28.9 °F 85% 30.30 in 6.0 mi South 3.5 mph - 0.00 in   Overcast
1:19 PM 33.1 °F 30.0 °F 28.9 °F 85% 30.26 in 1.8 mi South 3.5 mph - N/A   Overcast
1:53 PM 33.1 °F 28.7 °F 28.9 °F 85% 30.27 in 2.0 mi South 4.6 mph - 0.01 in   Overcast
2:36 PM 33.1 °F 28.7 °F 28.9 °F 85% 30.24 in 3.0 mi SSE 4.6 mph - 0.01 in   Overcast
2:53 PM 33.1 °F 27.7 °F 28.9 °F 85% 30.26 in 2.5 mi SSE 5.8 mph - 0.01 in   Overcast
3:23 PM 33.1 °F 27.7 °F 28.9 °F 85% 30.24 in 1.8 mi SSE 5.8 mph - N/A   Overcast
3:53 PM 33.1 °F 28.7 °F 30.0 °F 89% 30.26 in 1.5 mi SSE 4.6 mph - N/A   Overcast
5:20 PM 33.1 °F 30.0 °F 30.0 °F 89% 30.23 in 3.0 mi SE 3.5 mph - N/A   Overcast
5:32 PM 33.1 °F - 30.0 °F 89% 30.23 in 2.5 mi Calm Calm - N/A   Overcast
5:53 PM 33.1 °F - 30.0 °F 89% 30.25 in 2.5 mi Calm Calm - N/A   Overcast
6:25 PM 34.0 °F - 30.0 °F 85% 30.23 in 2.0 mi Calm Calm - N/A   Overcast
6:34 PM 34.0 °F - 30.0 °F 85% 30.24 in 2.0 mi Calm Calm - N/A   Overcast
6:41 PM 34.0 °F - 30.0 °F 85% 30.24 in 1.8 mi Calm Calm - N/A   Overcast
6:53 PM 33.1 °F - 30.0 °F 89% 30.25 in 1.5 mi Calm Calm - N/A   Overcast
7:53 PM 33.1 °F - 30.0 °F 89% 30.25 in 1.2 mi Calm Calm - N/A   Overcast
8:08 PM 34.0 °F - 30.0 °F 85% 30.23 in 1.8 mi Calm Calm - N/A   Overcast
8:53 PM 34.0 °F - 30.0 °F 85% 30.26 in 1.5 mi Calm Calm - N/A   Overcast
9:53 PM 34.0 °F 29.8 °F 30.0 °F 85% 30.24 in 1.2 mi SE 4.6 mph - N/A   Overcast
10:53 PM 34.0 °F 29.8 °F 30.0 °F 85% 30.22 in 1.2 mi SSE 4.6 mph - N/A   Overcast
11:42 PM 34.0 °F 29.8 °F 30.0 °F 85% 30.18 in 1.2 mi SE 4.6 mph - N/A   Overcast
11:53 PM 34.0 °F 29.8 °F 30.0 °F 85% 30.20 in 1.2 mi SSE 4.6 mph - N/A   Overcast